STARLINK-6255, 56550

Orbit data source: Space-Track

STARLINK-6255, 56550 is a payload satellite owned by SpaceX/Seattle (US) in LEO that was launched on Sun, 14 May 2023 UTC via an FALCON 9 launch vehicle from the Air Force Eastern Test Range (AFETR). Payload-class satellites include a variety of spacecraft equipped with specific instruments for various scientific and technological missions. These include communications satellites like Starlink; space stations such as the ISS; scientific satellites like the Hubble; Earth observation satellites from companies like Planet Labs, Umbra, and HawkEye 360; GPS; miniature CubeSats for education and research; and military/defense satellites.

Loading next visibility...
Identifier
56550, 2023-065AZ
Orbit
LEO
Country
Flag of USUS
Related business
Manufacturer
SpaceX/Seattle
Mission
Operational Commercial Communications
Bus & Motor
STARLINK, Unknown motor
Mass
305 kg wet, ~290 kg dry
Launch date (UTC)
2023-05-14 (3 years ago)
Launch vehicle
FALCON 9
Launch site
Air Force Eastern Test Range (AFETR)
Object type
Payload
Rocket body
Debris
Shape & HBR
Box + 1 Pan, 10.1 m
Radar Cross Section
11.087 m², Large (>1 m²)

Expand to show TLE details & history
Last TLE update: 3 days ago

TLE from 3 days ago
0 STARLINK-6255
1 56550U 23065AZ  26170.59363635  .00000021  00000-0  10279-4 0  9999
2 56550  43.0049   8.3754 0001230 266.6757  93.3954 15.27575813172057
Epoch: 2026-06-19T14:14Z
TLE epoch observation values (Epoch: 2026-06-19T14:14:50.180Z)
Latitude
-0.00002°
Longitude
-113.15409°
Altitude
482.888 km
Speed
7.626 km/s
True Right ascension
00h 33m 30s
True Declination
0° 00' 00"
Sunlit
Object was in daylight at epoch
Visualization orbit readout
Latitude
Unknown
Longitude
Unknown
Altitude
Unknown
Speed
Unknown
Apparent Right ascension
Unknown
Apparent Declination
Unknown
Sunlit
N/A
Visualization observer readout
Local Sidereal Time
21:24:28
Azimuth
Unknown
Elevation
Unknown
Doppler factor
Unknown
Orbital elements
Apogee altitude
485.85 km
Perigee altitude
484.162 km
Semi-major axis
6,863.143 km
Eccentricity
0.00012
Inclination
43.0049°
RAAN
8.3754°
Arg. of periapsis
266.6757°
True anomaly
93.40947°
Mean anomaly
93.3954°
Eccentric anomaly
93.40243°
Mean motion
3.81732 °/min
Orbital period
94.31 mins
BSTAR
0.000010279
Loading maneuver chart data...
Computing Atmospheric mass density...
Loading historical data...
Loading historical data...
Loading historical data...
Loading historical data...
Loading historical data...
Loading historical data...
Loading historical data...

Documentation

Showing up to 5 results
|